Starlink 31156

operational
NORAD ID: 58743 Int'l Des: 2024-005 Owner: SPXS Country: US Constellation: starlink
LEOCIRCULAR

About Starlink 31156

Description loading...

Live Position

Loading 3D Globe...

Upcoming Passes

Altitude History

Altitude vs Time

uPlot chart will show altitude changes over time

Two-Line Element Set

1 58743U 24005R 25310.31993148 .00003340 00000-0 26224-3 0 9996
2 58743 43.0028 171.9862 0001175 269.2086 90.8622 15.02527515101919
Epoch: Nov 6, 2025 • Age: 31 hours

Current Status

Altitude 565.9 km
Velocity 7.58 km/s
Sub-Earth Point -28.07°S, 107.76°E
Launch Date Jan 7, 2024
Age 1.8 years
Type internet

Technical Details

Classification Payload
Mass 730.00 kg
Dry Mass 700.00 kg
Total Mass 730.00 kg
Length 0.30 m
Diameter 4.10 m
Span 29.00 m
Shape Box + pan
Manufacturer SPXS
Bus Type Starlink V2M
Phase Status In Orbit
Owner/State SPXS/US

Large Constellations

Loading constellations...